User: anonymous   Login
Location: Wallasey
(53.4265°N, 3.0662°W)
Time: 04:07:43
(UTC+01:00)
Language:

NOAA 15 - Orbit

View from above orbital plane
View from above orbital plane
View from above satellite
View from above satellite

Ground track
Ground track

The orbit data is extracted from the following two-line orbital elements,

1 25338U 98030A   19262.53153511  .00000007  00000-0  21655-4 0  9995
2 25338  98.7432 283.6134 0009936 339.1214  20.9558 14.25931299110470
Epoch (UTC): 19 September 2019 12:45:24
Eccentricity: 0.0009936
inclination: 98.7432°
perigee height: 798 km
apogee height: 812 km
right ascension of ascending node: 283.6134°
argument of perigee: 339.1214°
revolutions per day: 14.25931299
mean anomaly at epoch: 20.9558°
orbit number at epoch: 11047

The dashed part of the orbit path shows where the satellite is in the earth's shadow,  

DLR